Вернуться в каталог

ATLAS 5 CENTAUR DEB

АктивенHEO
NORAD 43974·DEBRIS·🇺🇸 United States

Запущен Sep 17, 2014 с Cape Canaveral Space Force Station

Loading…

Ближайшие Пролёты (ближайшие 24 часа)

TLE

УстаревшееSource: Space-Track

Эпоха: Aug 19, 2026, 07:04 UTC

1 43974U 14055AD  26231.29466429 -.00000174  00000-0  00000-0 0  9991
2 43974  20.4712 125.8813 4853687 191.1365 152.2331  1.84465663 53693

Отслеживайте ATLAS 5 CENTAUR DEB в реальном времени с AllMySat

Download on the App Store